sat.trackr.live / text

‹ back to catalog

STARLINK-11506 [DTC]

NORAD 62466 · 2024-254E

PAYLOAD ACTIVE UNKNOWN

§ Identity

Operator
Country
US
Launch date
2024-12-31
Launch site
AFETR
Launch vehicle
Mass (kg)
RCS (m²)

Purposes: comms

External: N2YO · Heavens-Above · Gunter

§ Orbital elements

Epoch: 2026-09-21T07:48:08.159616Z

Period
91.67 min
Inclination
43.0001°
Eccentricity
0.0001492
Mean motion
15.70930727 rev/d
Perigee alt
355.2 km
Apogee alt
357.2 km
Semi-major
6,734.4 km
B*
1.4921e-3
RAAN
123.3965°
Arg perigee
292.4225°
Mean anomaly
67.6485°
Rev number
10,001

§ Raw data

STARLINK-11506 [DTC]1 62466U 24254E   26264.32509444  .00196343  00000+0  14921-2 0  99962 62466  43.0001 123.3965 0001492 292.4225  67.6485 15.70930727100014

JSON: /api/v1/satellites/62466 · /tle

For live sub-satellite position, see the globe view (requires WebGL).

§ Visibility from observer

Set your observer location to see the next 7 days of passes ≥ 10°. The values pass through the URL so the page stays shareable.

No JS? Fill the form by hand. The geolocation button needs JavaScript.